Location: Northam
(31.6525°S, 116.6655°E)
Time: 17:18:12
(UTC+08:00)

Hubble Space Telescope - Pass Details

Date: 21 May 2021
Orbit: 535 x 539 km, 28.5° (Epoch: 17 June)

Event Time Altitude Azimuth Distance (km) Brightness Sun altitude
Rises 18:33:50 0° 277° (W) 2,688 6.1 -15.4°
Reaches altitude 10° 18:36:08 10° 281° (W) 1,798 4.8 -15.8°
Maximum altitude 18:40:13 55° 359° (N) 650 1.2 -16.7°
Enters shadow 18:42:08 28° 65° (ENE) 1,025 1.8 -17.1°
